Tracking 22779 objects as of 14-Apr-2021
HD Live streaming from Space Station
objects crossing your sky now

APSTAR 1

Track APSTAR 1 now!
APSTAR 1 is classified as:


NORAD ID: 23185
Int'l Code: 1994-043A
Perigee: 36,004.9 km
Apogee: 36,089.4 km
Inclination: 11.4 °
Period: 1,449.1 minutes
Semi major axis: 42418 km
RCS: 25.1188 m2 (large)
Launch date: July 21, 1994
Source: People's Republic of China (PRC)
Launch site: Xichang Space Center, China (XSC)

24 C-band transponders.
aabbcc
Your satellite tracking list
Your tracking list is empty




NASA's NSSDC Master Catalog

Two Line Element Set (TLE):
1 23185U 94043A   21103.33130478 -.00000107  00000-0  00000+0 0  9993
2 23185  11.4032  30.3411 0009962   3.2629 203.0124  0.99374483 97647
Source of the keplerian elements: AFSPC